Location: Gökben Yaylas?
(36.8988°N, 29.6291°E)
Time: 12:29:03
(UTC+00:00)

Cosmos 1743 - Pass Details

Date: 15 May 2026
Orbit: 368 x 372 km, 82.5° (Epoch: 7 June)

Event Time Altitude Azimuth Distance (km) Brightness Sun altitude
Rises 18:14:33 0° 352° (N) 2,246 6.7 -13.2°
Reaches altitude 10° 18:16:32 10° 351° (N) 1,393 5.6 -13.6°
Maximum altitude 18:19:33 83° 263° (W) 386 2.0 -14.0°
Enters shadow 18:21:28 20° 177° (S) 940 3.6 -14.4°
